Terminal Aerodrome Forecast
Issued by NWS Wakefield, VA

Home | Current Version | Previous Version | Text Only | Print | Product List | Glossary On
Versions: 1 2 3 4 5 6 7 8 9 10 11 12 13 14 15 16 17
000
FTUS41 KAKQ 260500
TAFSBY
TAF
KSBY 260521Z 2606/2706 VRB02KT P6SM SCT250
     FM261000 17003KT 5SM BR SCT250
     FM261600 21008KT P6SM SCT040 BKN200
      AMD NOT SKED=

USA.gov is the U.S. government's official web portal to all federal, state and local government web resources and services.